Location: Kershaw
(34.5481°N, 80.5823°W)
Time: 14:15:18
(UTC+00:00)

Transit 2A Rocket - Visible Passes

Search period start: 03 October 2022 00:00
Search period end: 13 October 2022 00:00
Orbit: 593 x 908 km, 66.7° (Epoch: 02 October)

Date Brightness Start Highest point End Pass type
(mag) Time Alt. Az. Time Alt. Az. Time Alt. Az.
03 Oct 4.8 10:23:26 10° SSW 10:27:46 68° ESE 10:32:02 10° NNE visible
04 Oct 6.2 09:41:07 10° S 09:45:00 32° ESE 09:48:49 10° NE visible
05 Oct 7.3 08:59:43 10° SE 09:02:18 16° ESE 09:04:52 10° ENE visible
05 Oct 5.1 10:40:26 10° SW 10:44:27 36° WNW 10:48:27 10° N visible
06 Oct 4.3 09:58:45 22° SSW 10:01:30 76° WNW 10:05:49 10° NNE visible
07 Oct 5.2 09:18:10 47° SE 09:18:41 50° ESE 09:22:50 10° NE visible
08 Oct 6.9 08:37:22 20° E 08:37:22 20° E 08:39:24 10° NE visible
08 Oct 5.6 10:17:18 22° WNW 10:18:18 25° NW 10:21:52 10° N visible
09 Oct 5.2 09:36:18 39° NNW 09:36:18 39° NNW 09:39:28 10° NNE visible
10 Oct 6.6 08:55:11 21° NNE 08:55:11 21° NNE 08:56:42 10° NNE visible
11 Oct 6.6 09:53:51 14° NNW 09:53:51 14° NNW 09:55:04 10° N visible
12 Oct 7.0 09:12:31 12° N 09:12:31 12° N 09:12:58 10° N visible
